Location: ??????
(41.3747°N, 22.5491°E)
Time: 14:48:23
(UTC+00:00)

SL-16 R/B - Pass Details

Date: 01 December 2020
Orbit: 841 x 849 km, 71.0° (Epoch: 21 January)

Event Time Altitude Azimuth Distance (km) Brightness Sun altitude
Rises 16:52:01 0° 246° (WSW) 3,388 6.8 -20.3°
Reaches altitude 10° 16:55:07 10° 263° (W) 2,457 5.8 -20.9°
Maximum altitude 16:59:11 20° 309° (NW) 1,854 4.4 -21.6°
Drops below altitude 10° 17:03:16 10° 356° (N) 2,466 4.6 -22.4°
Enters shadow 17:05:12 - 8° (N) 3,018 4.9 -22.7°
